Location: Dehesa de la Cepeda
(40.6574°N, 4.3013°W)
Time: 17:19:35
(UTC+00:00)

Courier 1B Rocket - Pass Details

Date: 02 August 2021
Orbit: 920 x 1202 km, 28.3° (Epoch: 27 September)

Event Time Altitude Azimuth Distance (km) Brightness Sun altitude
Exits shadow 02:14:47 18° 136° (SE) 2,157 6.6 -26.1°
Drops below altitude 10° 02:16:56 10° 119° (ESE) 2,666 7.3 -25.9°
Sets 02:19:59 0° 106° (ESE) 3,583 8.1 -25.7°
